TimePDT,TemperatureF,Dew PointF,Humidity,Sea Level PressureIn,VisibilityMPH,Wind Direction,Wind SpeedMPH,Gust SpeedMPH,PrecipitationIn,Events,Conditions,WindDirDegrees,DateUTC
12:54 AM,55.0,50.0,83,30.03,10.0,Calm,Calm,-,N/A,,Clear,0,2012-09-14 07:54:00
1:54 AM,55.0,51.1,86,30.03,10.0,NW,3.5,-,N/A,,Clear,310,2012-09-14 08:54:00
2:54 AM,54.0,51.1,90,30.02,10.0,WSW,8.1,-,N/A,,Clear,250,2012-09-14 09:54:00
3:54 AM,53.1,50.0,89,30.04,10.0,NW,3.5,-,N/A,,Clear,310,2012-09-14 10:54:00
4:54 AM,53.1,51.1,93,30.03,10.0,WSW,4.6,-,N/A,,Partly Cloudy,250,2012-09-14 11:54:00
5:02 AM,53.6,51.8,94,30.06,10.0,West,5.8,-,N/A,,Partly Cloudy,270,2012-09-14 12:02:00
5:54 AM,53.1,51.1,93,30.03,10.0,West,6.9,-,N/A,,Mostly Cloudy,260,2012-09-14 12:54:00
6:25 AM,53.6,51.8,94,30.07,10.0,West,4.6,-,N/A,,Scattered Clouds,260,2012-09-14 13:25:00
6:42 AM,53.6,50.0,88,30.08,10.0,Calm,Calm,-,N/A,,Mostly Cloudy,0,2012-09-14 13:42:00
6:54 AM,54.0,51.1,90,30.05,10.0,West,3.5,-,N/A,,Overcast,260,2012-09-14 13:54:00
7:54 AM,55.0,52.0,89,30.06,10.0,West,6.9,-,N/A,,Overcast,270,2012-09-14 14:54:00
8:54 AM,55.9,52.0,87,30.07,10.0,West,9.2,-,N/A,,Overcast,270,2012-09-14 15:54:00
9:54 AM,59.0,53.1,81,30.07,10.0,SW,5.8,-,N/A,,Scattered Clouds,230,2012-09-14 16:54:00
10:54 AM,64.0,53.1,67,30.08,10.0,SW,6.9,-,N/A,,Clear,220,2012-09-14 17:54:00
11:54 AM,66.9,54.0,63,30.07,10.0,SSW,9.2,-,N/A,,Clear,210,2012-09-14 18:54:00
12:54 PM,68.0,55.0,63,30.06,10.0,SSW,9.2,-,N/A,,Clear,200,2012-09-14 19:54:00
1:54 PM,72.0,55.0,55,30.03,10.0,SSW,10.4,-,N/A,,Clear,210,2012-09-14 20:54:00
2:54 PM,75.0,55.0,50,30.00,10.0,South,9.2,-,N/A,,Clear,190,2012-09-14 21:54:00
3:54 PM,75.0,55.0,50,29.98,10.0,South,13.8,-,N/A,,Clear,190,2012-09-14 22:54:00
4:54 PM,73.9,55.9,53,29.96,10.0,South,13.8,-,N/A,,Clear,190,2012-09-14 23:54:00
5:54 PM,71.1,55.0,57,29.96,10.0,SSW,15.0,-,N/A,,Clear,200,2012-09-15 00:54:00
6:54 PM,66.0,55.9,70,29.97,10.0,South,10.4,-,N/A,,Clear,190,2012-09-15 01:54:00
7:54 PM,60.1,52.0,75,29.98,10.0,WNW,4.6,-,N/A,,Clear,300,2012-09-15 02:54:00
8:54 PM,59.0,50.0,72,30.00,10.0,Calm,Calm,-,N/A,,Clear,0,2012-09-15 03:54:00
9:54 PM,55.9,48.9,77,30.01,10.0,Calm,Calm,-,N/A,,Clear,0,2012-09-15 04:54:00
10:54 PM,53.1,46.9,80,30.02,10.0,Calm,Calm,-,N/A,,Clear,0,2012-09-15 05:54:00
11:54 PM,53.1,48.9,86,30.03,10.0,Calm,Calm,-,N/A,,Clear,0,2012-09-15 06:54:00